When you browse on this site, cookies collect data to enhance your experience and personalize the content and advertising you see.
Visit our Privacy Policy to learn more. By continuing to use the site, you agree to this use of cookies and data.
  • In Slovakia
  • List of Countries
  • For 7 days
  • Water Temperature
  • Satellite Maps
  • Weather Map
  • Weather Widgets
  • user-avatar
    Login

    Hourly Weather Cizgari

    Today, 21 April, Sunday

    Time Temperature Precipitation Wind Pressure Humidity
    00:00 -4°C° 0 mm 1 mps 644 mmHg 84%
    01:00 -4°C° 0 mm 1 mps 643 mmHg 83%
    02:00 -4°C° 0 mm 1 mps 643 mmHg 82%
    03:00 -4°C° 0 mm 1 mps 643 mmHg 81%
    04:00 -4°C° 0 mm 1 mps 643 mmHg 80%
    05:00 -3°C° 0 mm 1 mps 644 mmHg 79%
    06:00 -2°C° 0 mm 1 mps 644 mmHg 79%
    07:00 -1°C° 0 mm 1 mps 644 mmHg 79%
    08:00 0°C° 0 mm 1 mps 645 mmHg 78%
    09:00 -1°C° 0 mm 2 mps 645 mmHg 78%
    10:00 +1°C° 0 mm 2 mps 645 mmHg 78%
    11:00 +1°C° 0 mm 2 mps 645 mmHg 78%
    12:00 +2°C° 0 mm 2 mps 645 mmHg 78%
    13:00 +1°C° 0 mm 3 mps 645 mmHg 79%
    14:00 0°C° 0 mm 3 mps 645 mmHg 80%
    15:00 0°C° 0 mm 3 mps 645 mmHg 81%
    16:00 0°C° 0.1 mm 3 mps 645 mmHg 84%
    17:00 -1°C° 0.1 mm 2 mps 645 mmHg 87%
    18:00 -1°C° 0.1 mm 2 mps 645 mmHg 90%
    19:00 -2°C° 0.1 mm 2 mps 645 mmHg 92%
    20:00 -2°C° 0.1 mm 2 mps 645 mmHg 93%
    21:00 -2°C° 0.1 mm 2 mps 645 mmHg 94%
    22:00 0°C° 0 mm 1 mps 645 mmHg 93%
    23:00 -1°C° 0 mm 1 mps 645 mmHg 92%

    Tomorrow, 22 April, Monday

    Time Temperature Precipitation Wind Pressure Humidity
    00:00 -1°C° 0 mm 1 mps 645 mmHg 92%
    01:00 -2°C° 0 mm 1 mps 644 mmHg 90%
    02:00 -2°C° 0 mm 1 mps 644 mmHg 89%
    03:00 -3°C° 0 mm 1 mps 644 mmHg 88%
    04:00 -2°C° 0 mm 1 mps 644 mmHg 86%
    05:00 -2°C° 0 mm 1 mps 644 mmHg 85%
    06:00 -2°C° 0 mm 1 mps 644 mmHg 83%
    07:00 0°C° 0 mm 1 mps 645 mmHg 81%
    08:00 -1°C° 0 mm 2 mps 645 mmHg 78%
    09:00 +1°C° 0 mm 2 mps 646 mmHg 76%
    10:00 +1°C° 0.1 mm 3 mps 646 mmHg 76%
    11:00 +1°C° 0.1 mm 3 mps 646 mmHg 75%
    12:00 +1°C° 0.1 mm 3 mps 646 mmHg 75%
    13:00 +1°C° 0.1 mm 3 mps 646 mmHg 75%
    14:00 +1°C° 0.1 mm 3 mps 646 mmHg 74%
    15:00 +1°C° 0.1 mm 3 mps 646 mmHg 73%
    16:00 +1°C° 0 mm 2 mps 645 mmHg 75%
    17:00 +1°C° 0 mm 2 mps 645 mmHg 77%
    18:00 +1°C° 0 mm 1 mps 645 mmHg 79%
    19:00 0°C° 0 mm 1 mps 645 mmHg 80%
    20:00 -1°C° 0 mm 1 mps 645 mmHg 82%
    21:00 -1°C° 0 mm 1 mps 646 mmHg 83%
    22:00 -1°C° 0 mm 1 mps 646 mmHg 82%
    23:00 -2°C° 0 mm 1 mps 646 mmHg 80%

    Day after tomorrow, 23 April, Tuesday

    Time Temperature Precipitation Wind Pressure Humidity
    00:00 -2°C° 0 mm 1 mps 646 mmHg 79%
    01:00 -2°C° 0 mm 1 mps 646 mmHg 77%
    02:00 -2°C° 0 mm 1 mps 646 mmHg 74%
    03:00 -2°C° 0 mm 1 mps 646 mmHg 71%
    04:00 -1°C° 0 mm 1 mps 646 mmHg 69%
    05:00 -1°C° 0 mm 1 mps 647 mmHg 66%
    06:00 -1°C° 0 mm 1 mps 647 mmHg 64%
    07:00 +1°C° 0 mm 1 mps 648 mmHg 60%
    08:00 +2°C° 0 mm 1 mps 648 mmHg 57%
    09:00 +3°C° 0 mm 2 mps 649 mmHg 53%
    10:00 +3°C° 0 mm 2 mps 649 mmHg 54%
    11:00 +4°C° 0 mm 2 mps 650 mmHg 56%
    12:00 +3°C° 0 mm 3 mps 650 mmHg 57%
    13:00 +3°C° 0 mm 3 mps 649 mmHg 59%
    14:00 +4°C° 0 mm 2 mps 649 mmHg 60%
    15:00 +4°C° 0 mm 2 mps 649 mmHg 62%
    16:00 +3°C° 0 mm 2 mps 649 mmHg 65%
    17:00 +3°C° 0 mm 1 mps 649 mmHg 68%
    18:00 +2°C° 0 mm 1 mps 649 mmHg 71%
    19:00 +2°C° 0 mm 1 mps 649 mmHg 73%
    20:00 +1°C° 0 mm 1 mps 649 mmHg 75%
    21:00 0°C° 0 mm 1 mps 649 mmHg 77%
    22:00 0°C° 0 mm 1 mps 649 mmHg 77%
    23:00 -2°C° 0 mm 2 mps 649 mmHg 77%

    24 April, Wednesday

    Time Temperature Precipitation Wind Pressure Humidity
    00:00 -2°C° 0 mm 2 mps 649 mmHg 77%
    01:00 -2°C° 0 mm 2 mps 649 mmHg 76%
    02:00 -2°C° 0 mm 2 mps 649 mmHg 75%
    03:00 -2°C° 0 mm 2 mps 649 mmHg 73%
    04:00 -2°C° 0 mm 2 mps 649 mmHg 71%
    05:00 -2°C° 0 mm 2 mps 649 mmHg 68%
    06:00 -1°C° 0 mm 2 mps 649 mmHg 66%
    07:00 +2°C° 0 mm 2 mps 650 mmHg 61%
    08:00 +3°C° 0 mm 2 mps 650 mmHg 56%
    09:00 +5°C° 0 mm 2 mps 651 mmHg 51%
    10:00 +5°C° 0 mm 2 mps 651 mmHg 52%
    11:00 +6°C° 0 mm 2 mps 651 mmHg 53%
    12:00 +5°C° 0 mm 3 mps 650 mmHg 54%
    13:00 +6°C° 0.1 mm 2 mps 650 mmHg 56%
    14:00 +6°C° 0.1 mm 2 mps 649 mmHg 58%
    15:00 +5°C° 0.1 mm 2 mps 649 mmHg 60%
    16:00 +5°C° 0.1 mm 2 mps 649 mmHg 64%
    17:00 +5°C° 0.1 mm 1 mps 649 mmHg 68%
    18:00 +4°C° 0.1 mm 1 mps 648 mmHg 72%
    19:00 +4°C° 0 mm 1 mps 648 mmHg 73%
    20:00 +3°C° 0 mm 1 mps 648 mmHg 74%
    21:00 +2°C° 0 mm 2 mps 648 mmHg 75%
    22:00 +2°C° 0 mm 2 mps 648 mmHg 73%
    23:00 +2°C° 0 mm 2 mps 648 mmHg 71%

    25 April, Thursday

    Time Temperature Precipitation Wind Pressure Humidity
    00:00 +3°C° 0 mm 1 mps 648 mmHg 68%
    01:00 +3°C° 0 mm 1 mps 648 mmHg 66%
    02:00 +3°C° 0 mm 1 mps 648 mmHg 65%
    03:00 +3°C° 0 mm 1 mps 647 mmHg 63%
    04:00 +3°C° 0.4 mm 1 mps 647 mmHg 66%
    05:00 +3°C° 0.4 mm 1 mps 648 mmHg 68%
    06:00 +3°C° 0.4 mm 1 mps 648 mmHg 71%
    07:00 +3°C° 0.6 mm 1 mps 648 mmHg 74%
    08:00 +3°C° 0.6 mm 1 mps 648 mmHg 76%
    09:00 +4°C° 0.6 mm 1 mps 649 mmHg 78%
    10:00 +3°C° 0.3 mm 2 mps 649 mmHg 77%
    11:00 +4°C° 0.3 mm 2 mps 649 mmHg 75%
    12:00 +4°C° 0.3 mm 3 mps 649 mmHg 74%
    13:00 +4°C° 0.4 mm 3 mps 649 mmHg 73%
    14:00 +4°C° 0.4 mm 3 mps 649 mmHg 73%
    15:00 +4°C° 0.4 mm 3 mps 649 mmHg 72%
    16:00 +5°C° 0.7 mm 2 mps 649 mmHg 77%
    17:00 +5°C° 0.7 mm 1 mps 649 mmHg 81%
    18:00 +3°C° 0.7 mm 0 mps 649 mmHg 86%
    19:00 +3°C° 0.3 mm 0 mps 649 mmHg 86%
    20:00 +3°C° 0.3 mm 0 mps 650 mmHg 86%
    21:00 +2°C° 0.3 mm 0 mps 650 mmHg 86%
    22:00 +3°C° 0.1 mm 1 mps 650 mmHg 84%
    23:00 +3°C° 0.1 mm 1 mps 650 mmHg 83%

    26 April, Friday

    Time Temperature Precipitation Wind Pressure Humidity
    00:00 +3°C° 0.1 mm 1 mps 649 mmHg 82%
    01:00 +2°C° 0 mm 1 mps 649 mmHg 80%
    02:00 +1°C° 0 mm 2 mps 649 mmHg 77%
    03:00 +1°C° 0 mm 2 mps 649 mmHg 75%
    04:00 +1°C° 0 mm 2 mps 649 mmHg 73%
    05:00 +1°C° 0 mm 2 mps 649 mmHg 71%
    06:00 +1°C° 0 mm 2 mps 649 mmHg 68%
    07:00 +3°C° 0 mm 2 mps 650 mmHg 67%
    08:00 +6°C° 0 mm 1 mps 650 mmHg 65%
    09:00 +7°C° 0 mm 1 mps 651 mmHg 64%
    10:00 +7°C° 0 mm 2 mps 651 mmHg 64%
    11:00 +7°C° 0 mm 2 mps 651 mmHg 63%
    12:00 +8°C° 0 mm 2 mps 651 mmHg 63%
    13:00 +8°C° 0 mm 2 mps 650 mmHg 63%
    14:00 +8°C° 0 mm 2 mps 650 mmHg 64%
    15:00 +8°C° 0 mm 2 mps 650 mmHg 64%
    16:00 +7°C° 0 mm 2 mps 649 mmHg 67%
    17:00 +6°C° 0 mm 2 mps 649 mmHg 70%
    18:00 +5°C° 0 mm 2 mps 649 mmHg 73%
    19:00 +4°C° 0 mm 2 mps 649 mmHg 74%
    20:00 +3°C° 0 mm 2 mps 649 mmHg 75%
    21:00 +2°C° 0 mm 2 mps 648 mmHg 76%
    22:00 +2°C° 0 mm 2 mps 648 mmHg 74%
    23:00 +2°C° 0 mm 2 mps 648 mmHg 72%
    Show more